Weather History for Novato, CA

Change the Weather History Date:

Monday, October 28, 2013

  Actual Average (KAPC) Record (KAPC)
Temperature  
Mean Temperature 52 °F 56 °F  
Max Temperature 64 °F 71 °F 88 °F (2003)
Min Temperature 41 °F 41 °F 33 °F (2004)
Degree Days  
Heating Degree Days 12    
Month to date heating degree days  
Since 1 July heating degree days  
Cooling Degree Days 0    
Month to date cooling degree days  
Year to date cooling degree days  
Growing Degree Days 2 (Base 50)    
Moisture  
Dew Point 44 °F    
Average Humidity 72    
Maximum Humidity 100    
Minimum Humidity 42    
Precipitation  
Precipitation 0.00 in - 1.01 in (1981)
Month to date precipitation  
Year to date precipitation  
Since 1 July precipitation  
Sea Level Pressure  
Sea Level Pressure 29.72 in    
Wind  
Wind Speed 8 mph (WSW)    
Max Wind Speed 17 mph    
Max Gust Speed 24 mph    
Visibility 10 miles    
Events      
T = Trace of Precipitation, MM = Missing Value Source: NWS Daily Summary

Daily Weather History Graph

Daily Weather History Graph

Search for Another Location

Airport:

Trip Planner

Search our weather history database for the weather conditions in past years. The results will help you decide how hot, cold, wet, or windy it might be!

Date:

Astronomy

Oct. 28, 2013 Rise Set
Actual Time 7:32 AM PDT 6:15 PM PDT
Civil Twilight 7:05 AM PDT 6:42 PM PDT
Nautical Twilight 6:34 AM PDT 7:13 PM PDT
Astronomical Twilight 6:03 AM PDT 7:43 PM PDT
Moon 1:35 AM PDT (10/28) 2:55 PM PDT (10/28)
Length of Visible Light 11h 37m
Length of Day
10h 42m
Waning Crescent, 33% of the Moon is Illuminated
Oct 28
Waning Crescent
Nov 3
New
Nov 9
First Quarter
Nov 17
Full
Nov 25
Last Quarter

Hourly Weather History & Observations

Time (PDT) Temp. Windchill Dew Point Humidity Pressure Visibility Wind Dir Wind Speed Gust Speed Precip Events Conditions
12:15 AM 53.6 °F - 42.8 °F 67% 29.67 in 10.0 mi West 11.5 mph 19.6 mph N/A   Clear
12:35 AM 53.6 °F - 42.8 °F 67% 29.68 in 10.0 mi West 6.9 mph 16.1 mph N/A   Clear
12:55 AM 53.6 °F - 42.8 °F 67% 29.68 in 10.0 mi West 10.4 mph 17.3 mph N/A   Clear
1:15 AM 53.6 °F - 42.8 °F 67% 29.68 in 10.0 mi West 13.8 mph 20.7 mph N/A   Clear
1:35 AM 53.6 °F - 42.8 °F 67% 29.68 in 10.0 mi West 11.5 mph 21.9 mph N/A   Clear
1:55 AM 53.6 °F - 42.8 °F 67% 29.69 in 10.0 mi West 12.7 mph 21.9 mph N/A   Clear
2:15 AM 53.6 °F - 41.0 °F 62% 29.68 in 10.0 mi WNW 13.8 mph - N/A   Clear
2:35 AM 53.6 °F - 41.0 °F 62% 29.68 in 10.0 mi West 12.7 mph 24.2 mph N/A   Clear
2:55 AM 53.6 °F - 41.0 °F 62% 29.68 in 10.0 mi WNW 12.7 mph 20.7 mph N/A   Clear
3:15 AM 53.6 °F - 41.0 °F 62% 29.69 in 10.0 mi WNW 12.7 mph 18.4 mph N/A   Clear
3:35 AM 53.6 °F - 41.0 °F 62% 29.67 in 10.0 mi West 11.5 mph 19.6 mph N/A   Clear
3:55 AM 53.6 °F - 42.8 °F 67% 29.67 in 10.0 mi WNW 10.4 mph - N/A   Clear
4:15 AM 53.6 °F - 44.6 °F 72% 29.68 in 10.0 mi SSW 3.5 mph - N/A   Clear
4:35 AM 51.8 °F - 44.6 °F 76% 29.67 in 10.0 mi WNW 8.1 mph - N/A   Clear
4:55 AM 53.6 °F - 42.8 °F 67% 29.67 in 10.0 mi NW 8.1 mph - N/A   Clear
5:15 AM 53.6 °F - 42.8 °F 67% 29.67 in 10.0 mi WNW 6.9 mph - N/A   Clear
5:35 AM 53.6 °F - 44.6 °F 72% 29.68 in 10.0 mi WNW 4.6 mph - N/A   Clear
5:55 AM 46.4 °F 42.9 °F 44.6 °F 93% 29.68 in 10.0 mi ENE 6.9 mph - N/A   Clear
6:15 AM 44.6 °F 43.1 °F 44.6 °F 100% 29.69 in 9.0 mi East 3.5 mph - N/A   Clear
6:35 AM 46.4 °F - 46.4 °F 100% 29.69 in 9.0 mi Calm Calm - N/A   Clear
6:55 AM 44.6 °F - 44.6 °F 100% 29.69 in 9.0 mi Calm Calm - N/A   Clear
7:15 AM 44.6 °F 41.4 °F 44.6 °F 100% 29.68 in 8.0 mi South 5.8 mph - N/A   Clear
7:35 AM 42.8 °F 41.1 °F 42.8 °F 100% 29.70 in 7.0 mi ENE 3.5 mph - N/A   Clear
7:55 AM 42.8 °F - 42.8 °F 100% 29.70 in 6.0 mi Calm Calm - N/A   Clear
8:15 AM 41.0 °F - 41.0 °F 100% 29.71 in 5.0 mi Calm Calm - N/A   Clear
8:35 AM 44.6 °F 42.2 °F 44.6 °F 100% 29.72 in 6.0 mi ENE 4.6 mph - N/A   Clear
8:55 AM 48.2 °F - 46.4 °F 93% 29.73 in 9.0 mi Calm Calm - N/A   Clear
9:15 AM 51.8 °F - 46.4 °F 82% 29.73 in 9.0 mi Calm Calm - N/A   Clear
9:35 AM 53.6 °F - 46.4 °F 77% 29.73 in 10.0 mi Calm Calm - N/A   Clear
9:55 AM 55.4 °F - 44.6 °F 67% 29.73 in 10.0 mi NW 3.5 mph - N/A   Clear
10:15 AM 57.2 °F - 41.0 °F 55% 29.73 in 10.0 mi NNW 8.1 mph - N/A   Clear
10:35 AM 59.0 °F - 41.0 °F 51% 29.73 in 10.0 mi NW 8.1 mph - N/A   Clear
10:55 AM 59.0 °F - 41.0 °F 51% 29.73 in 10.0 mi NNW 5.8 mph - N/A   Clear
11:15 AM 59.0 °F - 41.0 °F 51% 29.73 in 10.0 mi NNW 10.4 mph - N/A   Clear
11:35 AM 59.0 °F - 41.0 °F 51% 29.73 in 10.0 mi NW 8.1 mph - N/A   Clear
11:55 AM 60.8 °F - 41.0 °F 48% 29.73 in 10.0 mi NNE 4.6 mph - N/A   Clear
12:15 PM 60.8 °F - 41.0 °F 48% 29.73 in 10.0 mi Calm Calm - N/A   Clear
12:35 PM 62.6 °F - 42.8 °F 48% 29.72 in 10.0 mi South 4.6 mph - N/A   Clear
12:55 PM 62.6 °F - 41.0 °F 45% 29.72 in - South 5.8 mph - N/A   Clear
1:15 PM 62.6 °F - 41.0 °F 45% 29.71 in - SSW 8.1 mph - N/A   Clear
1:35 PM 64.4 °F - 41.0 °F 42% 29.70 in - SW 4.6 mph - N/A   Clear
1:55 PM 64.4 °F - 42.8 °F 45% 29.70 in - SSW 11.5 mph - N/A   Clear
2:15 PM 62.6 °F - 41.0 °F 45% 29.70 in - SW 8.1 mph - N/A   Clear
2:35 PM 62.6 °F - 42.8 °F 48% 29.70 in 10.0 mi SW 9.2 mph - N/A   Partly Cloudy
2:55 PM 64.4 °F - 42.8 °F 45% 29.70 in 10.0 mi SSW 5.8 mph - N/A   Scattered Clouds
3:15 PM 62.6 °F - 42.8 °F 48% 29.71 in 10.0 mi WSW 11.5 mph - N/A   Scattered Clouds
3:35 PM 62.6 °F - 42.8 °F 48% 29.71 in 10.0 mi SW 10.4 mph - N/A   Clear
3:55 PM 62.6 °F - 42.8 °F 48% 29.71 in 10.0 mi SW 10.4 mph - N/A   Clear
4:15 PM 62.6 °F - 42.8 °F 48% 29.72 in 10.0 mi SW 11.5 mph - N/A   Clear
4:35 PM 62.6 °F - 42.8 °F 48% 29.72 in 10.0 mi SW 11.5 mph - N/A   Clear
4:55 PM 60.8 °F - 44.6 °F 55% 29.72 in 10.0 mi WSW 15.0 mph - N/A   Clear
5:15 PM 59.0 °F - 46.4 °F 63% 29.72 in 10.0 mi SW 15.0 mph - N/A   Clear
5:35 PM 57.2 °F - 46.4 °F 67% 29.72 in - WSW 17.3 mph - N/A   Clear
5:55 PM 55.4 °F - 48.2 °F 77% 29.73 in - WSW 15.0 mph 19.6 mph N/A   Clear
6:15 PM 55.4 °F - 48.2 °F 77% 29.73 in - WSW 12.7 mph - N/A   Clear
6:35 PM 55.4 °F - 48.2 °F 77% 29.74 in 10.0 mi WSW 10.4 mph 18.4 mph N/A   Clear
6:55 PM 53.6 °F - 48.2 °F 82% 29.74 in 10.0 mi WSW 8.1 mph - N/A   Clear
7:15 PM 53.6 °F - 48.2 °F 82% 29.75 in 10.0 mi West 6.9 mph - N/A   Clear
7:35 PM 53.6 °F - 48.2 °F 82% 29.76 in 10.0 mi WSW 10.4 mph - N/A   Clear
7:55 PM 53.6 °F - 48.2 °F 82% 29.77 in 10.0 mi WSW 9.2 mph - N/A   Clear
8:15 PM 50.0 °F - 46.4 °F 87% 29.77 in 10.0 mi SSW 3.5 mph - N/A   Clear
8:35 PM 50.0 °F - 46.4 °F 87% 29.78 in 10.0 mi WSW 3.5 mph - N/A   Clear
8:55 PM 50.0 °F - 46.4 °F 87% 29.79 in 10.0 mi NE 3.5 mph - N/A   Clear
9:15 PM 48.2 °F - 46.4 °F 93% 29.79 in 10.0 mi Calm Calm - N/A   Clear
9:35 PM 53.6 °F - 48.2 °F 82% 29.80 in 10.0 mi South 8.1 mph - N/A   Clear
9:55 PM 50.0 °F - 46.4 °F 87% 29.81 in 10.0 mi Calm Calm - N/A   Clear
10:15 PM 50.0 °F - 48.2 °F 94% 29.82 in 10.0 mi South 6.9 mph - N/A   Clear
10:35 PM 46.4 °F - 46.4 °F 100% 29.82 in 10.0 mi Calm Calm - N/A   Clear
10:55 PM 44.6 °F - 44.6 °F 100% 29.83 in 10.0 mi Calm Calm - N/A   Clear
11:15 PM 46.4 °F - 46.4 °F 100% 29.83 in 10.0 mi Calm Calm - N/A   Clear
11:35 PM 44.6 °F - 44.6 °F 100% 29.84 in 10.0 mi Calm Calm - N/A   Clear
11:55 PM 50.0 °F - 48.2 °F 94% 29.84 in 10.0 mi SW 6.9 mph - N/A   Clear